Weather History for CWIC - August, 2013

Change the Weather History Date:

Sunday, August 25, 2013

  Actual Average Record
Temperature  
Mean Temperature 20 °F -  
Max Temperature 22 °F - - ()
Min Temperature 16 °F - - ()
Degree Days  
Heating Degree Days 46    
Moisture  
Dew Point 16 °F    
Average Humidity 88    
Maximum Humidity 93    
Minimum Humidity 80    
Precipitation  
Precipitation 0.00 in - - ()
Sea Level Pressure  
Sea Level Pressure 29.68 in    
Wind  
Wind Speed 16 mph ()    
Max Wind Speed 24 mph    
Max Gust Speed -    
T = Trace of Precipitation, MM = Missing Value Source: Averaged Metar Reports

Daily Weather History Graph

Daily Weather History Graph

Search for Another Location

Airport or City:

Trip Planner

Search our weather history database for the weather conditions in past years. The results will help you decide how hot, cold, wet, or windy it might be!

Date:

Astronomy

Aug. 25, 2013 Rise Set
Actual Time 1:28 AM MDT 12:35 AM MDT
Civil Twilight Sun does not set Sun does not set
Nautical Twilight Sun does not set Sun does not set
Astronomical Twilight Sun does not set Sun does not set
Moon No Moon Rise No Moon Set
Length of Visible Light 24h 00m
Length of Day
23h 06m
Waning Gibbous, 75% of the Moon is Illuminated
Aug 25
Waning Gibbous
Aug 28
Last Quarter
Sep 5
New
Sep 12
First Quarter
Sep 19
Full

Hourly Weather History & Observations

Time (MDT) Temp. Windchill Dew Point Humidity Pressure Visibility Wind Dir Wind Speed Gust Speed Precip Events Conditions
12:00 AM 18 °F - 16 °F 86% 29.62 in - North 19.6 mph - -  
12:00 AM 18.1 °F 1.6 °F 15.6 °F 90% 29.62 in - North 20.7 mph - N/A   Unknown
1:00 AM 17.8 °F -0.1 °F 15.8 °F 92% 29.62 in - North 24.2 mph - N/A   Unknown
2:00 AM 18.1 °F 2.0 °F 16.0 °F 91% 29.64 in - North 19.6 mph - N/A   Unknown
3:00 AM 18.1 °F 1.2 °F 15.8 °F 91% 29.65 in - North 21.9 mph - N/A   Unknown
4:00 AM 18.3 °F 3.1 °F 16.2 °F 91% - - North 17.3 mph - N/A   Unknown
5:00 AM 18.3 °F 2.6 °F 16.3 °F 92% 29.65 in - North 18.4 mph - N/A   Unknown
6:00 AM 19 °F - 16 °F 85% 29.67 in - NNW 13.8 mph - -  
6:00 AM 18.9 °F 5.3 °F 16.3 °F 90% 29.67 in - NNW 13.8 mph - N/A   Unknown
7:00 AM 19.0 °F 3.2 °F 16.5 °F 90% 29.66 in - North 19.6 mph - N/A   Unknown
8:00 AM 18.5 °F 4.9 °F 15.8 °F 89% 29.67 in - North 13.8 mph - N/A   Unknown
9:00 AM 18.5 °F 2.4 °F 15.8 °F 89% 29.66 in - North 19.6 mph - N/A   Unknown
10:00 AM 20.5 °F 5.9 °F 16.3 °F 84% 29.67 in - North 17.3 mph - N/A   Unknown
11:00 AM 21.4 °F 8.5 °F 16.7 °F 82% 29.68 in - North 13.8 mph - N/A   Unknown
12:00 PM 20 °F - 17 °F 80% 29.66 in - North 18.4 mph - -  
12:00 PM 20.1 °F 5.0 °F 16.5 °F 86% 29.66 in - North 18.4 mph - N/A   Unknown
1:00 PM 19.9 °F 3.2 °F 16.7 °F 87% 29.67 in - North 23.0 mph - N/A   Unknown
2:00 PM 21.4 °F 8.5 °F 16.3 °F 81% 29.70 in - North 13.8 mph - N/A   Unknown
3:00 PM 20.7 °F 7.1 °F 16.7 °F 85% 29.70 in - North 15.0 mph - N/A   Unknown
4:00 PM 21.0 °F 8.6 °F 17.4 °F 86% 29.71 in - NNW 12.7 mph - N/A   Unknown
5:00 PM 20.3 °F 4.8 °F 17.2 °F 88% 29.70 in - North 19.6 mph - N/A   Unknown
6:00 PM 20 °F - 17 °F 81% 29.72 in - North 17.3 mph - -  
6:00 PM 20.1 °F 5.4 °F 16.7 °F 87% 29.72 in - North 17.3 mph - N/A   Unknown
7:00 PM 19.2 °F 3.0 °F 16.3 °F 89% 29.71 in - North 20.7 mph - N/A   Unknown
8:00 PM 18.5 °F 1.6 °F 16.9 °F 93% 29.71 in - North 21.9 mph - N/A   Unknown
9:00 PM 18.3 °F 4.1 °F 16.7 °F 93% 29.73 in - North 15.0 mph - N/A   Unknown
10:00 PM 17.4 °F 6.2 °F 15.4 °F 92% 29.73 in - NNW 9.2 mph - N/A   Unknown
11:00 PM 16.7 °F 2.6 °F 14.9 °F 93% 29.73 in - North 13.8 mph - N/A   Unknown